Simultaneous Nadir Overpasses (SNOs) Predictions

Prediction of SNOs between GOES-18 and NOAA-21 Satellite Orbit:

Table of predicted SNOs for the next 14.0 days since TLE Epoch: 12/8/2023
Index Date Time (GOES-18) GOES-18 Lat,Lon NOAA-21 Lat,Lon Distance(km) Time Diff (sec)
1 12/08/2023 22:35:39 -0.01,-136.99 -0.17,-137.72 83.50 80
2 12/09/2023 22:14:15 -0.01,-136.98 0.83,-133.19 432.05 80
3 12/11/2023 10:38:43 0.02,-136.96 0.35,-138.46 169.91 80
4 12/12/2023 10:17:19 0.02,-136.95 -0.66,-133.92 344.76 80
5 12/13/2023 22:41:55 -0.02,-136.92 -0.54,-139.22 263.14 80
6 12/14/2023 22:20:30 -0.01,-136.90 0.47,-134.69 250.94 80
7 12/16/2023 10:44:59 0.01,-136.87 0.71,-139.96 352.83 80
8 12/17/2023 10:23:34 -0.00,-136.85 -0.30,-135.43 160.90 80
9 12/18/2023 22:48:11 -0.00,-136.81 -0.89,-140.74 447.85 80
10 12/19/2023 22:26:46 0.00,-136.78 0.13,-136.21 65.85 80
11 12/22/2023 10:32:30 0.00,-136.72 0.02,-136.95 24.88 80
